Time,TemperatureF,DewpointF,PressureIn,WindDirection,WindDirectionDegrees,WindSpeedMPH,WindSpeedGustMPH,Humidity,HourlyPrecipIn,Conditions,Clouds,dailyrainin,SoftwareType,DateUTC
2013-08-10 00:00:00,74.2,41.5,29.89,WSW,250,0.0,0.0,31,0.00,,---,0.00,VWS V12.07,2013-08-10 07:00:00,
2013-08-10 00:02:00,74.0,41.6,29.89,WSW,250,0.0,0.0,31,0.00,,---,0.00,VWS V12.07,2013-08-10 07:02:00,
2013-08-10 00:07:00,73.6,42.0,29.89,WSW,250,0.0,0.0,32,0.00,,---,0.00,VWS V12.07,2013-08-10 07:07:00,
2013-08-10 00:12:00,73.3,42.6,29.89,WSW,250,0.0,0.0,33,0.00,,---,0.00,VWS V12.07,2013-08-10 07:12:00,
2013-08-10 00:17:00,72.9,42.5,29.89,WSW,250,0.0,0.0,34,0.00,,---,0.00,VWS V12.07,2013-08-10 07:17:00,
2013-08-10 00:22:00,72.7,42.4,29.89,WSW,250,0.0,0.0,34,0.00,,---,0.00,VWS V12.07,2013-08-10 07:22:00,
2013-08-10 00:27:00,72.7,42.7,29.89,WSW,250,0.0,0.0,34,0.00,,---,0.00,VWS V12.07,2013-08-10 07:27:00,
2013-08-10 00:30:00,72.5,42.5,29.89,WSW,250,0.0,0.0,34,0.00,,---,0.00,VWS V12.07,2013-08-10 07:30:00,
2013-08-10 00:32:00,72.7,42.5,29.89,WSW,250,0.0,0.0,34,0.00,,---,0.00,VWS V12.07,2013-08-10 07:32:00,
2013-08-10 00:37:00,72.5,42.7,29.89,WSW,250,0.0,0.0,34,0.00,,---,0.00,VWS V12.07,2013-08-10 07:37:00,
2013-08-10 00:42:00,72.4,42.9,29.89,WSW,250,0.0,0.0,35,0.00,,---,0.00,VWS V12.07,2013-08-10 07:42:00,
2013-08-10 00:47:00,72.3,42.8,29.89,WSW,250,0.0,0.0,34,0.00,,---,0.00,VWS V12.07,2013-08-10 07:47:00,
2013-08-10 00:52:00,72.3,42.4,29.89,WSW,250,0.0,0.0,34,0.00,,---,0.00,VWS V12.07,2013-08-10 07:52:00,
2013-08-10 00:57:00,72.1,42.4,29.90,WSW,250,0.0,0.0,34,0.00,,---,0.00,VWS V12.07,2013-08-10 07:57:00,
2013-08-10 01:00:00,71.9,42.2,29.90,WSW,250,0.0,0.0,34,0.00,,---,0.00,VWS V12.07,2013-08-10 08:00:00,
2013-08-10 01:02:00,71.8,42.0,29.89,WSW,250,0.0,0.0,34,0.00,,---,0.00,VWS V12.07,2013-08-10 08:02:00,
2013-08-10 01:07:00,71.6,42.3,29.89,WSW,250,0.0,0.0,35,0.00,,---,0.00,VWS V12.07,2013-08-10 08:07:00,
2013-08-10 01:12:00,71.5,42.6,29.89,WSW,250,0.0,0.0,35,0.00,,---,0.00,VWS V12.07,2013-08-10 08:12:00,
2013-08-10 01:17:00,71.4,43.2,29.89,WSW,250,0.0,0.0,36,0.00,,---,0.00,VWS V12.07,2013-08-10 08:17:00,
2013-08-10 01:22:00,71.5,43.2,29.89,WSW,250,0.0,0.0,36,0.00,,---,0.00,VWS V12.07,2013-08-10 08:22:00,
2013-08-10 01:27:00,71.2,43.3,29.90,WSW,250,0.0,0.0,37,0.00,,---,0.00,VWS V12.07,2013-08-10 08:27:00,
2013-08-10 01:30:00,70.9,43.2,29.90,WSW,250,0.0,0.0,37,0.00,,---,0.00,VWS V12.07,2013-08-10 08:30:00,
2013-08-10 01:32:00,70.8,43.2,29.90,WSW,250,0.0,0.0,37,0.00,,---,0.00,VWS V12.07,2013-08-10 08:32:00,
2013-08-10 01:37:00,70.5,42.9,29.90,WSW,250,0.0,0.0,37,0.00,,---,0.00,VWS V12.07,2013-08-10 08:37:00,
2013-08-10 01:42:00,70.3,43.1,29.90,WSW,250,0.0,0.0,37,0.00,,---,0.00,VWS V12.07,2013-08-10 08:42:00,
2013-08-10 01:47:00,70.1,43.2,29.90,WSW,250,0.0,0.0,38,0.00,,---,0.00,VWS V12.07,2013-08-10 08:47:00,
2013-08-10 01:52:00,70.1,43.5,29.90,WSW,250,0.0,0.0,38,0.00,,---,0.00,VWS V12.07,2013-08-10 08:52:00,
2013-08-10 01:57:00,70.2,43.6,29.90,WSW,250,0.0,0.0,38,0.00,,---,0.00,VWS V12.07,2013-08-10 08:57:00,
2013-08-10 02:00:00,70.1,43.5,29.90,WSW,250,0.0,0.0,38,0.00,,---,0.00,VWS V12.07,2013-08-10 09:00:00,
2013-08-10 02:02:00,70.2,43.4,29.90,WSW,250,0.0,0.0,38,0.00,,---,0.00,VWS V12.07,2013-08-10 09:02:00,
2013-08-10 02:07:00,70.1,43.4,29.90,WSW,250,0.0,0.0,38,0.00,,---,0.00,VWS V12.07,2013-08-10 09:07:00,
2013-08-10 02:12:00,70.2,43.4,29.90,WSW,250,0.0,0.0,38,0.00,,---,0.00,VWS V12.07,2013-08-10 09:12:00,
2013-08-10 02:17:00,70.0,42.8,29.90,WSW,248,0.0,2.7,37,0.00,,---,0.00,VWS V12.07,2013-08-10 09:17:00,
2013-08-10 02:22:00,69.9,42.9,29.90,WSW,248,0.0,2.7,38,0.00,,---,0.00,VWS V12.07,2013-08-10 09:22:00,
2013-08-10 02:27:00,69.7,42.8,29.90,WSW,248,0.0,2.7,38,0.00,,---,0.00,VWS V12.07,2013-08-10 09:27:00,
2013-08-10 02:30:00,69.7,42.8,29.90,WSW,248,0.0,2.7,38,0.00,,---,0.00,VWS V12.07,2013-08-10 09:30:00,
2013-08-10 02:32:00,69.6,42.8,29.90,WSW,248,0.0,2.7,38,0.00,,---,0.00,VWS V12.07,2013-08-10 09:32:00,
2013-08-10 02:37:00,69.6,43.0,29.90,WSW,248,0.0,2.7,38,0.00,,---,0.00,VWS V12.07,2013-08-10 09:37:00,
2013-08-10 02:42:00,69.8,43.3,29.90,WSW,248,0.0,2.7,38,0.00,,---,0.00,VWS V12.07,2013-08-10 09:42:00,
2013-08-10 02:47:00,69.7,43.4,29.90,WSW,248,0.0,2.7,39,0.00,,---,0.00,VWS V12.07,2013-08-10 09:47:00,
2013-08-10 02:52:00,69.7,43.2,29.90,WSW,248,0.0,0.0,38,0.00,,---,0.00,VWS V12.07,2013-08-10 09:52:00,
2013-08-10 02:57:00,69.7,43.3,29.91,WSW,248,0.0,0.0,38,0.00,,---,0.00,VWS V12.07,2013-08-10 09:57:00,
2013-08-10 03:00:00,69.6,43.2,29.91,WSW,248,0.0,0.0,38,0.00,,---,0.00,VWS V12.07,2013-08-10 10:00:00,
2013-08-10 03:02:00,69.5,43.8,29.91,WSW,248,0.0,0.0,40,0.00,,---,0.00,VWS V12.07,2013-08-10 10:02:00,
2013-08-10 03:07:00,69.2,43.9,29.92,WSW,248,0.0,0.0,40,0.00,,---,0.00,VWS V12.07,2013-08-10 10:07:00,
2013-08-10 03:12:00,68.7,43.4,29.92,WSW,248,0.0,0.0,40,0.00,,---,0.00,VWS V12.07,2013-08-10 10:12:00,
2013-08-10 03:17:00,68.4,43.7,29.92,WSW,248,0.0,0.0,41,0.00,,---,0.00,VWS V12.07,2013-08-10 10:17:00,
2013-08-10 03:22:00,67.9,44.0,29.92,WSW,248,0.0,0.0,42,0.00,,---,0.00,VWS V12.07,2013-08-10 10:22:00,
2013-08-10 03:27:00,67.3,44.2,29.92,WSW,248,0.0,0.0,43,0.00,,---,0.00,VWS V12.07,2013-08-10 10:27:00,
2013-08-10 03:30:00,67.3,44.4,29.92,WSW,248,0.0,0.0,44,0.00,,---,0.00,VWS V12.07,2013-08-10 10:30:00,
2013-08-10 03:32:00,66.9,44.4,29.92,WSW,248,0.0,0.0,44,0.00,,---,0.00,VWS V12.07,2013-08-10 10:32:00,
2013-08-10 03:37:00,66.6,43.7,29.92,WSW,248,0.0,0.0,44,0.00,,---,0.00,VWS V12.07,2013-08-10 10:37:00,
2013-08-10 03:42:00,66.7,43.3,29.92,WSW,248,0.0,0.0,43,0.00,,---,0.00,VWS V12.07,2013-08-10 10:42:00,
2013-08-10 03:47:00,66.6,43.4,29.92,WSW,248,0.0,0.0,43,0.00,,---,0.00,VWS V12.07,2013-08-10 10:47:00,
2013-08-10 03:52:00,66.2,42.8,29.92,WSW,248,0.0,0.0,43,0.00,,---,0.00,VWS V12.07,2013-08-10 10:52:00,
2013-08-10 03:57:00,66.2,43.1,29.92,WSW,248,0.0,0.0,43,0.00,,---,0.00,VWS V12.07,2013-08-10 10:57:00,
2013-08-10 04:00:00,66.1,43.0,29.92,WSW,248,0.0,0.0,43,0.00,,---,0.00,VWS V12.07,2013-08-10 11:00:00,
2013-08-10 04:02:00,66.2,43.6,29.92,WSW,248,0.0,0.0,44,0.00,,---,0.00,VWS V12.07,2013-08-10 11:02:00,
2013-08-10 04:07:00,65.9,43.3,29.92,WSW,248,0.0,0.0,44,0.00,,---,0.00,VWS V12.07,2013-08-10 11:07:00,
2013-08-10 04:12:00,65.8,43.4,29.92,WSW,248,0.0,0.0,44,0.00,,---,0.00,VWS V12.07,2013-08-10 11:12:00,
2013-08-10 04:17:00,65.6,43.2,29.92,WSW,248,0.0,0.0,44,0.00,,---,0.00,VWS V12.07,2013-08-10 11:17:00,
2013-08-10 04:22:00,65.7,43.7,29.92,WSW,248,0.0,0.0,45,0.00,,---,0.00,VWS V12.07,2013-08-10 11:22:00,
2013-08-10 04:27:00,65.4,43.3,29.92,WSW,248,0.0,0.0,45,0.00,,---,0.00,VWS V12.07,2013-08-10 11:27:00,
2013-08-10 04:30:00,65.2,43.2,29.92,WSW,248,0.0,0.0,45,0.00,,---,0.00,VWS V12.07,2013-08-10 11:30:00,
2013-08-10 04:32:00,65.2,43.3,29.92,WSW,248,0.0,0.0,45,0.00,,---,0.00,VWS V12.07,2013-08-10 11:32:00,
2013-08-10 04:37:00,65.0,42.8,29.92,WSW,248,0.0,0.0,44,0.00,,---,0.00,VWS V12.07,2013-08-10 11:37:00,
2013-08-10 04:42:00,65.1,42.9,29.92,WSW,248,0.0,0.0,44,0.00,,---,0.00,VWS V12.07,2013-08-10 11:42:00,
2013-08-10 04:47:00,65.0,42.6,29.92,WSW,248,0.0,0.0,44,0.00,,---,0.00,VWS V12.07,2013-08-10 11:47:00,
2013-08-10 04:52:00,65.2,43.1,29.93,WSW,248,0.0,0.0,45,0.00,,---,0.00,VWS V12.07,2013-08-10 11:52:00,
2013-08-10 04:57:00,65.1,42.7,29.93,WSW,248,0.0,0.0,44,0.00,,---,0.00,VWS V12.07,2013-08-10 11:57:00,
2013-08-10 05:00:00,65.2,42.8,29.93,WSW,248,0.0,0.0,44,0.00,,---,0.00,VWS V12.07,2013-08-10 12:00:00,
2013-08-10 05:02:00,65.3,42.9,29.93,WSW,248,0.0,0.0,44,0.00,,---,0.00,VWS V12.07,2013-08-10 12:02:00,
2013-08-10 05:07:00,65.2,42.8,29.93,WSW,248,0.0,0.0,44,0.00,,---,0.00,VWS V12.07,2013-08-10 12:07:00,
2013-08-10 05:12:00,65.6,42.9,29.93,WSW,248,0.0,0.0,44,0.00,,---,0.00,VWS V12.07,2013-08-10 12:12:00,
2013-08-10 05:17:00,65.7,42.9,29.94,WSW,248,0.0,0.0,44,0.00,,---,0.00,VWS V12.07,2013-08-10 12:17:00,
2013-08-10 05:22:00,65.9,43.0,29.94,WSW,248,0.0,0.0,43,0.00,,---,0.00,VWS V12.07,2013-08-10 12:22:00,
2013-08-10 05:27:00,65.8,43.2,29.94,WSW,248,0.0,0.0,44,0.00,,---,0.00,VWS V12.07,2013-08-10 12:27:00,
2013-08-10 05:30:00,66.1,43.5,29.94,WSW,248,0.0,0.0,44,0.00,,---,0.00,VWS V12.07,2013-08-10 12:30:00,
2013-08-10 05:32:00,66.0,43.5,29.94,WSW,248,0.0,0.0,44,0.00,,---,0.00,VWS V12.07,2013-08-10 12:32:00,
2013-08-10 05:37:00,66.0,43.5,29.95,WSW,248,0.0,0.0,44,0.00,,---,0.00,VWS V12.07,2013-08-10 12:37:00,
2013-08-10 05:42:00,65.9,43.9,29.94,WSW,248,0.0,0.0,45,0.00,,---,0.00,VWS V12.07,2013-08-10 12:42:00,
2013-08-10 05:47:00,65.9,44.0,29.94,WSW,248,0.0,0.0,45,0.00,,---,0.00,VWS V12.07,2013-08-10 12:47:00,
2013-08-10 05:52:00,65.8,44.2,29.95,WSW,248,0.0,0.0,46,0.00,,---,0.00,VWS V12.07,2013-08-10 12:52:00,
2013-08-10 05:57:00,65.8,44.3,29.95,WSW,248,0.0,0.0,46,0.00,,---,0.00,VWS V12.07,2013-08-10 12:57:00,
2013-08-10 06:00:00,65.7,44.2,29.95,WSW,248,0.0,0.0,46,0.00,,---,0.00,VWS V12.07,2013-08-10 13:00:00,
2013-08-10 06:02:00,65.6,44.4,29.95,WSW,248,0.0,0.0,46,0.00,,---,0.00,VWS V12.07,2013-08-10 13:02:00,
2013-08-10 06:07:00,65.3,43.9,29.95,WSW,248,0.0,0.0,46,0.00,,---,0.00,VWS V12.07,2013-08-10 13:07:00,
2013-08-10 06:12:00,65.4,43.9,29.95,WSW,248,0.0,0.0,46,0.00,,---,0.00,VWS V12.07,2013-08-10 13:12:00,
2013-08-10 06:17:00,65.5,44.2,29.95,WSW,248,0.0,0.0,46,0.00,,---,0.00,VWS V12.07,2013-08-10 13:17:00,
2013-08-10 06:22:00,65.2,44.4,29.95,WSW,248,0.0,0.0,47,0.00,,---,0.00,VWS V12.07,2013-08-10 13:22:00,
2013-08-10 06:27:00,65.1,45.0,29.95,WSW,248,0.0,0.0,48,0.00,,---,0.00,VWS V12.07,2013-08-10 13:27:00,
2013-08-10 06:30:00,65.1,45.2,29.95,WSW,248,0.0,0.0,48,0.00,,---,0.00,VWS V12.07,2013-08-10 13:30:00,
2013-08-10 06:32:00,65.2,45.2,29.96,WSW,248,0.0,0.0,48,0.00,,---,0.00,VWS V12.07,2013-08-10 13:32:00,
2013-08-10 06:37:00,64.9,45.2,29.96,WSW,248,0.0,0.0,49,0.00,,---,0.00,VWS V12.07,2013-08-10 13:37:00,
2013-08-10 06:42:00,64.8,45.4,29.96,WSW,248,0.0,0.0,49,0.00,,---,0.00,VWS V12.07,2013-08-10 13:42:00,
2013-08-10 06:47:00,64.9,45.1,29.96,WSW,248,0.0,0.0,49,0.00,,---,0.00,VWS V12.07,2013-08-10 13:47:00,
2013-08-10 06:52:00,65.0,44.7,29.96,WSW,248,0.0,0.0,48,0.00,,---,0.00,VWS V12.07,2013-08-10 13:52:00,
2013-08-10 06:57:00,65.1,45.2,29.96,WSW,248,0.0,0.0,48,0.00,,---,0.00,VWS V12.07,2013-08-10 13:57:00,
2013-08-10 07:00:00,65.1,45.1,29.96,WSW,248,0.0,0.0,48,0.00,,---,0.00,VWS V12.07,2013-08-10 14:00:00,
2013-08-10 07:02:00,65.3,44.7,29.97,WSW,248,0.0,0.0,47,0.00,,---,0.00,VWS V12.07,2013-08-10 14:02:00,
2013-08-10 07:07:00,66.0,45.1,29.96,WSW,248,0.0,0.0,47,0.00,,---,0.00,VWS V12.07,2013-08-10 14:07:00,
2013-08-10 07:12:00,66.9,45.9,29.97,WSW,248,0.0,0.0,47,0.00,,---,0.00,VWS V12.07,2013-08-10 14:12:00,
2013-08-10 07:17:00,67.7,47.2,29.96,WSW,248,0.0,0.0,48,0.00,,---,0.00,VWS V12.07,2013-08-10 14:17:00,
2013-08-10 07:22:00,68.4,47.3,29.97,WSW,248,0.0,0.0,47,0.00,,---,0.00,VWS V12.07,2013-08-10 14:22:00,
2013-08-10 07:27:00,69.2,46.8,29.97,WSW,248,0.0,0.0,45,0.00,,---,0.00,VWS V12.07,2013-08-10 14:27:00,
2013-08-10 07:30:00,69.4,46.7,29.97,WSW,248,0.0,0.0,44,0.00,,---,0.00,VWS V12.07,2013-08-10 14:30:00,
2013-08-10 07:32:00,69.9,46.9,29.97,WSW,248,0.0,0.0,44,0.00,,---,0.00,VWS V12.07,2013-08-10 14:32:00,
2013-08-10 07:37:00,71.0,46.9,29.97,WSW,248,0.0,0.0,42,0.00,,---,0.00,VWS V12.07,2013-08-10 14:37:00,
2013-08-10 07:42:00,71.8,46.9,29.97,WSW,248,0.0,0.0,41,0.00,,---,0.00,VWS V12.07,2013-08-10 14:42:00,
2013-08-10 07:47:00,73.0,47.0,29.97,WSW,248,0.0,0.0,40,0.00,,---,0.00,VWS V12.07,2013-08-10 14:47:00,
2013-08-10 07:52:00,73.7,47.6,29.97,WSW,248,0.0,0.0,40,0.00,,---,0.00,VWS V12.07,2013-08-10 14:52:00,
2013-08-10 07:57:00,74.6,48.0,29.97,WSW,248,0.0,0.0,39,0.00,,---,0.00,VWS V12.07,2013-08-10 14:57:00,
2013-08-10 08:00:00,75.0,48.3,29.97,WSW,248,0.0,0.0,39,0.00,,---,0.00,VWS V12.07,2013-08-10 15:00:00,
2013-08-10 08:02:00,75.4,48.0,29.97,WSW,248,0.0,0.0,38,0.00,,---,0.00,VWS V12.07,2013-08-10 15:02:00,
2013-08-10 08:07:00,76.0,48.2,29.97,WSW,248,0.0,0.0,38,0.00,,---,0.00,VWS V12.07,2013-08-10 15:07:00,
2013-08-10 08:12:00,76.6,47.8,29.98,WSW,248,0.0,0.0,36,0.00,,---,0.00,VWS V12.07,2013-08-10 15:12:00,
2013-08-10 08:17:00,77.0,46.5,29.98,WSW,248,0.0,0.0,34,0.00,,---,0.00,VWS V12.07,2013-08-10 15:17:00,
2013-08-10 08:22:00,77.5,45.9,29.98,WSW,248,0.0,0.0,33,0.00,,---,0.00,VWS V12.07,2013-08-10 15:22:00,
2013-08-10 08:27:00,78.7,46.3,29.98,WSW,248,0.0,0.0,32,0.00,,---,0.00,VWS V12.07,2013-08-10 15:27:00,
2013-08-10 08:30:00,78.9,46.4,29.98,WSW,248,0.0,0.0,32,0.00,,---,0.00,VWS V12.07,2013-08-10 15:30:00,
2013-08-10 08:32:00,79.2,45.5,29.98,WSW,248,0.0,0.0,30,0.00,,---,0.00,VWS V12.07,2013-08-10 15:32:00,
2013-08-10 08:37:00,79.8,45.5,29.98,WSW,248,0.0,0.0,30,0.00,,---,0.00,VWS V12.07,2013-08-10 15:37:00,
2013-08-10 08:42:00,80.0,44.4,29.98,WSW,248,0.0,0.0,28,0.00,,---,0.00,VWS V12.07,2013-08-10 15:42:00,
2013-08-10 08:47:00,80.3,44.2,29.98,WSW,248,0.0,0.0,28,0.00,,---,0.00,VWS V12.07,2013-08-10 15:47:00,
2013-08-10 08:52:00,80.5,42.8,29.98,WSW,248,0.0,2.5,26,0.00,,---,0.00,VWS V12.07,2013-08-10 15:52:00,
2013-08-10 08:57:00,80.7,43.0,29.98,WSW,248,0.0,2.5,26,0.00,,---,0.00,VWS V12.07,2013-08-10 15:57:00,
2013-08-10 09:00:00,80.9,43.1,29.98,WSW,248,0.0,2.5,26,0.00,,---,0.00,VWS V12.07,2013-08-10 16:00:00,
2013-08-10 09:02:00,81.4,43.3,29.98,East,94,0.0,4.7,26,0.00,,---,0.00,VWS V12.07,2013-08-10 16:02:00,
2013-08-10 09:07:00,81.9,42.8,29.98,East,94,0.0,4.7,25,0.00,,---,0.00,VWS V12.07,2013-08-10 16:07:00,
2013-08-10 09:13:00,82.7,42.4,29.98,East,82,0.0,4.7,24,0.00,,---,0.00,VWS V12.07,2013-08-10 16:13:00,
2013-08-10 09:18:00,83.1,41.5,29.98,East,82,0.0,4.7,23,0.00,,---,0.00,VWS V12.07,2013-08-10 16:18:00,
2013-08-10 09:23:00,83.4,41.0,29.98,East,82,0.0,4.7,22,0.00,,---,0.00,VWS V12.07,2013-08-10 16:23:00,
2013-08-10 09:28:00,83.5,41.0,29.98,East,82,0.0,4.7,22,0.00,,---,0.00,VWS V12.07,2013-08-10 16:28:00,
2013-08-10 09:30:00,83.5,41.0,29.98,East,82,0.0,4.7,22,0.00,,---,0.00,VWS V12.07,2013-08-10 16:30:00,
2013-08-10 09:33:00,83.9,41.4,29.98,ENE,72,2.6,5.4,22,0.00,,---,0.00,VWS V12.07,2013-08-10 16:33:00,
2013-08-10 09:38:00,84.1,41.1,29.98,ENE,75,0.0,5.4,22,0.00,,---,0.00,VWS V12.07,2013-08-10 16:38:00,
2013-08-10 09:43:00,84.6,39.8,29.98,ENE,75,0.0,5.4,20,0.00,,---,0.00,VWS V12.07,2013-08-10 16:43:00,
2013-08-10 09:48:00,84.6,39.8,29.98,East,79,0.0,0.0,20,0.00,,---,0.00,VWS V12.07,2013-08-10 16:48:00,
2013-08-10 09:49:00,84.5,39.5,29.98,East,79,0.0,6.2,20,0.00,,---,0.00,VWS V12.07,2013-08-10 16:49:00,
2013-08-10 09:54:00,85.0,39.7,29.98,East,79,0.0,6.2,20,0.00,,---,0.00,VWS V12.07,2013-08-10 16:54:00,
2013-08-10 09:59:00,85.8,39.6,29.98,East,100,0.0,11.2,20,0.00,,---,0.00,VWS V12.07,2013-08-10 16:59:00,
2013-08-10 10:00:00,85.8,39.9,29.98,East,100,0.0,11.2,20,0.00,,---,0.00,VWS V12.07,2013-08-10 17:00:00,
2013-08-10 10:04:00,86.1,38.8,29.98,ENE,60,0.0,11.2,19,0.00,,---,0.00,VWS V12.07,2013-08-10 17:04:00,
2013-08-10 10:09:00,86.6,38.1,29.98,South,188,0.0,11.2,18,0.00,,---,0.00,VWS V12.07,2013-08-10 17:09:00,
2013-08-10 10:14:00,86.9,38.0,29.98,ESE,111,0.0,11.2,18,0.00,,---,0.00,VWS V12.07,2013-08-10 17:14:00,
2013-08-10 10:19:00,87.2,37.9,29.98,East,83,0.0,11.2,18,0.00,,---,0.00,VWS V12.07,2013-08-10 17:19:00,
2013-08-10 10:24:00,87.2,37.7,29.98,ENE,60,0.0,11.2,17,0.00,,---,0.00,VWS V12.07,2013-08-10 17:24:00,
2013-08-10 10:29:00,87.8,37.5,29.98,SE,124,4.3,11.2,17,0.00,,---,0.00,VWS V12.07,2013-08-10 17:29:00,
2013-08-10 10:30:00,87.8,37.5,29.98,ENE,63,6.6,9.1,17,0.00,,---,0.00,VWS V12.07,2013-08-10 17:30:00,
2013-08-10 10:34:00,88.1,36.2,29.98,South,172,0.0,11.2,16,0.00,,---,0.00,VWS V12.07,2013-08-10 17:34:00,
2013-08-10 10:39:00,88.8,35.4,29.98,ESE,111,0.0,14.7,15,0.00,,---,0.00,VWS V12.07,2013-08-10 17:39:00,
2013-08-10 10:44:00,89.0,34.5,29.98,East,101,3.1,14.7,14,0.00,,---,0.00,VWS V12.07,2013-08-10 17:44:00,
2013-08-10 10:49:00,88.6,33.4,29.98,South,181,3.4,14.7,14,0.00,,---,0.00,VWS V12.07,2013-08-10 17:49:00,
2013-08-10 10:54:00,88.5,33.1,29.97,SSE,159,0.0,14.7,14,0.00,,---,0.00,VWS V12.07,2013-08-10 17:54:00,
2013-08-10 10:59:00,88.5,33.8,29.97,SSE,167,5.2,14.7,14,0.00,,---,0.00,VWS V12.07,2013-08-10 17:59:00,
2013-08-10 11:00:00,88.6,33.9,29.97,SSE,165,3.5,14.7,14,0.00,,---,0.00,VWS V12.07,2013-08-10 18:00:00,
2013-08-10 11:04:00,88.4,33.9,29.97,SSE,152,2.8,14.7,14,0.00,,---,0.00,VWS V12.07,2013-08-10 18:04:00,
2013-08-10 11:09:00,88.4,31.5,29.97,SSW,198,4.7,14.7,13,0.00,,---,0.00,VWS V12.07,2013-08-10 18:09:00,
2013-08-10 11:14:00,88.7,31.4,29.97,SSW,194,5.5,14.7,13,0.00,,---,0.00,VWS V12.07,2013-08-10 18:14:00,
2013-08-10 11:19:00,89.4,30.6,29.97,SE,128,3.4,14.7,12,0.00,,---,0.00,VWS V12.07,2013-08-10 18:19:00,
2013-08-10 11:24:00,89.6,31.1,29.97,SSW,195,6.6,14.7,12,0.00,,---,0.00,VWS V12.07,2013-08-10 18:24:00,
2013-08-10 11:29:00,89.9,31.4,29.97,South,179,3.4,14.7,12,0.00,,---,0.00,VWS V12.07,2013-08-10 18:29:00,
2013-08-10 11:30:00,89.8,31.5,29.97,South,186,3.4,12.1,12,0.00,,---,0.00,VWS V12.07,2013-08-10 18:30:00,
2013-08-10 11:34:00,90.5,29.5,29.97,South,188,10.4,16.4,11,0.00,,---,0.00,VWS V12.07,2013-08-10 18:34:00,
2013-08-10 11:39:00,91.1,29.8,29.97,WSW,250,3.3,16.4,11,0.00,,---,0.00,VWS V12.07,2013-08-10 18:39:00,
2013-08-10 11:44:00,91.4,29.6,29.97,SE,125,2.4,16.4,11,0.00,,---,0.00,VWS V12.07,2013-08-10 18:44:00,
2013-08-10 11:49:00,91.9,29.5,29.97,SSW,200,12.2,16.4,11,0.00,,---,0.00,VWS V12.07,2013-08-10 18:49:00,
2013-08-10 11:54:00,91.7,29.6,29.97,SSE,166,3.0,16.4,11,0.00,,---,0.00,VWS V12.07,2013-08-10 18:54:00,
2013-08-10 11:59:00,92.1,29.4,29.97,SSE,165,4.9,17.3,11,0.00,,---,0.00,VWS V12.07,2013-08-10 18:59:00,
2013-08-10 12:00:00,92.1,29.4,29.97,SW,219,8.9,17.3,11,0.00,,---,0.00,VWS V12.07,2013-08-10 19:00:00,
2013-08-10 12:04:00,92.3,29.4,29.96,SSE,162,0.0,17.3,11,0.00,,---,0.00,VWS V12.07,2013-08-10 19:04:00,
2013-08-10 12:09:00,92.3,28.4,29.96,SW,225,6.0,17.3,10,0.00,,---,0.00,VWS V12.07,2013-08-10 19:09:00,
2013-08-10 12:14:00,92.7,28.0,29.96,SSW,201,3.0,17.3,10,0.00,,---,0.00,VWS V12.07,2013-08-10 19:14:00,
2013-08-10 12:19:00,93.0,28.9,29.96,SSW,197,5.0,17.3,10,0.00,,---,0.00,VWS V12.07,2013-08-10 19:19:00,
2013-08-10 12:24:00,93.0,28.2,29.96,South,186,9.7,17.3,10,0.00,,---,0.00,VWS V12.07,2013-08-10 19:24:00,
2013-08-10 12:29:00,92.4,27.5,29.96,SW,221,0.0,17.3,10,0.00,,---,0.00,VWS V12.07,2013-08-10 19:29:00,
2013-08-10 12:30:00,92.1,27.3,29.96,SW,221,0.0,17.2,10,0.00,,---,0.00,VWS V12.07,2013-08-10 19:30:00,
2013-08-10 12:34:00,92.0,28.7,29.96,South,170,4.5,17.3,10,0.00,,---,0.00,VWS V12.07,2013-08-10 19:34:00,
2013-08-10 12:39:00,92.0,27.9,29.96,South,187,9.6,17.3,10,0.00,,---,0.00,VWS V12.07,2013-08-10 19:39:00,
2013-08-10 12:44:00,91.4,28.0,29.96,WSW,239,5.0,17.4,10,0.00,,---,0.00,VWS V12.07,2013-08-10 19:44:00,
2013-08-10 12:49:00,91.2,28.7,29.95,SW,235,5.0,17.5,11,0.00,,---,0.00,VWS V12.07,2013-08-10 19:49:00,
2013-08-10 12:54:00,91.3,28.6,29.95,South,190,6.3,17.5,11,0.00,,---,0.00,VWS V12.07,2013-08-10 19:54:00,
2013-08-10 12:59:00,91.9,28.8,29.95,SW,231,2.8,17.5,10,0.00,,---,0.00,VWS V12.07,2013-08-10 19:59:00,
2013-08-10 13:04:00,92.7,28.5,29.95,SW,226,4.3,18.8,10,0.00,,---,0.00,VWS V12.07,2013-08-10 20:04:00,
2013-08-10 13:09:00,93.0,28.7,29.95,SW,226,3.3,18.8,10,0.00,,---,0.00,VWS V12.07,2013-08-10 20:09:00,
2013-08-10 13:14:00,92.2,28.6,29.94,South,183,5.7,18.8,10,0.00,,---,0.00,VWS V12.07,2013-08-10 20:14:00,